GALAXY 16 (G-16)

Last updated on Sat Jul 05 2025 00:02:44 GMT+0000 (Coordinated Universal Time)

1 29236U 06023A 25185.54577615 -.00000112 00000+0 00000+0 0 9997 2 29236 0.0421 216.5757 0002881 253.3306 270.3565 1.00271771 69486
UTC large
Height (km)
Speed (km/s)
/
Latitude / Longitude
Inclination (degrees)
Orbital Period (minutes)
Azimuth
Elevation
Range (km)
Doppler Factor

Next 0 passes for location: London (51.5072 / 0.1276)

Sorry there are no passes over London.